This is the latest recevied weather packets stored in our database for station/object N3DXC. If no packets are shown the sender has not sent any weather packets the latest 1 day(s).
| Time | Temp. | Humidity | Pressure | Rain* | Wind** | Luminosity | Snow |
|---|---|---|---|---|---|---|---|
| 1777987190 | 17.78° C | 57% | 1009.5 hPa | 0 mm | 7.15 m/s, 225° | - | - |
| 1777986890 | 18.33° C | 56% | 1009.4 hPa | 0 mm | 6.26 m/s, 241° | - | - |
| 1777986590 | 18.33° C | 57% | 1009.4 hPa | 0 mm | 9.83 m/s, 241° | - | - |
| 1777986290 | 18.33° C | 57% | 1009.5 hPa | 0 mm | 8.05 m/s, 239° | - | - |
| 1777985990 | 18.33° C | 57% | 1009.5 hPa | 0 mm | 5.81 m/s, 217° | - | - |
| 1777985690 | 17.78° C | 57% | 1009.5 hPa | 0 mm | 8.05 m/s, 223° | - | - |
| 1777985390 | 17.78° C | 58% | 1009.5 hPa | 0 mm | 8.94 m/s, 223° | - | - |
| 1777985091 | 17.78° C | 58% | 1009.5 hPa | 0 mm | 5.36 m/s, 212° | - | - |
| 1777984790 | 17.78° C | 57% | 1009.5 hPa | 0 mm | 8.05 m/s, 209° | - | - |
| 1777984491 | 17.78° C | 59% | 1009.6 hPa | 0 mm | 6.26 m/s, 241° | - | - |
| 1777984190 | 17.22° C | 59% | 1009.5 hPa | 0 mm | 6.71 m/s, 217° | - | - |
| 1777983890 | 17.22° C | 60% | 1009.5 hPa | 0 mm | 5.81 m/s, 226° | - | - |
| 1777983591 | 17.22° C | 59% | 1009.6 hPa | 0 mm | 7.6 m/s, 217° | - | - |
| 1777983290 | 17.22° C | 58% | 1009.8 hPa | 0 mm | 9.39 m/s, 222° | - | - |
| 1777982991 | 17.22° C | 60% | 1009.6 hPa | 0 mm | 10.73 m/s, 241° | - | - |
| 1777982690 | 16.67° C | 59% | 1009.8 hPa | 0 mm | 9.83 m/s, 240° | - | - |
| 1777982390 | 16.67° C | 59% | 1009.6 hPa | 0 mm | 8.49 m/s, 241° | - | - |
| 1777982091 | 16.67° C | 60% | 1009.6 hPa | 0 mm | 8.94 m/s, 227° | - | - |
| 1777981791 | 16.67° C | 60% | 1009.6 hPa | 0 mm | 4.92 m/s, 205° | - | - |
| 1777981490 | 16.67° C | 61% | 1009.6 hPa | 0 mm | 5.81 m/s, 237° | - | - |
| 1777981191 | 16.67° C | 60% | 1009.8 hPa | 0 mm | 11.18 m/s, 234° | - | - |
| 1777980891 | 16.67° C | 61% | 1009.8 hPa | 0 mm | 7.6 m/s, 230° | - | - |
| 1777980591 | 16.67° C | 60% | 1009.8 hPa | 0 mm | 5.36 m/s, 246° | - | - |
| 1777980291 | 16.67° C | 61% | 1009.8 hPa | 0 mm | 7.15 m/s, 248° | - | - |
| 1777979991 | 16.67° C | 61% | 1009.6 hPa | 0 mm | 9.83 m/s, 240° | - | - |
* Rain latest hour (hover to see other rain measurements)
** Current wind speed in m/s (hover to see current wind gust speed)